• In Hungary
  • List of Countries
  • For 7 days
  • Water Temperature
  • Satellite Maps
  • Weather Map
  • News
  • Weather Widgets
  • user-avatar
    Login

    Hourly Weather Terespol

    Today, 14 November, Wednesday

    Time Temperature Precipitation Wind Pressure Humidity
    00:00 +8°C° 1.1 mm 5 mps 754 mmHg 83%
    01:00 +8°C° 1.1 mm 5 mps 754 mmHg 86%
    02:00 +8°C° 0 mm 4 mps 753 mmHg 90%
    03:00 +8°C° 0.1 mm 5 mps 753 mmHg 86%
    04:00 +8°C° 0.1 mm 5 mps 753 mmHg 83%
    05:00 +8°C° 0.1 mm 6 mps 753 mmHg 80%
    06:00 +8°C° 0.1 mm 6 mps 754 mmHg 81%
    07:00 +8°C° 0.1 mm 6 mps 754 mmHg 81%
    08:00 +8°C° 0.1 mm 6 mps 754 mmHg 81%
    09:00 +8°C° 0.2 mm 6 mps 754 mmHg 80%
    10:00 +8°C° 0.2 mm 6 mps 754 mmHg 78%
    11:00 +8°C° 0.2 mm 6 mps 755 mmHg 77%
    12:00 +8°C° 0.7 mm 6 mps 755 mmHg 78%
    13:00 +8°C° 0.7 mm 6 mps 755 mmHg 79%
    14:00 +8°C° 0.7 mm 6 mps 755 mmHg 80%
    15:00 +8°C° 0.5 mm 6 mps 755 mmHg 81%
    16:00 +8°C° 0.5 mm 6 mps 756 mmHg 81%
    17:00 +8°C° 0.5 mm 5 mps 756 mmHg 82%
    18:00 +7°C° 0.1 mm 5 mps 756 mmHg 83%
    19:00 +7°C° 0.1 mm 4 mps 756 mmHg 83%
    20:00 +7°C° 0.1 mm 4 mps 757 mmHg 84%
    21:00 +7°C° 0 mm 4 mps 757 mmHg 86%
    22:00 +7°C° 0 mm 4 mps 757 mmHg 87%
    23:00 +7°C° 0 mm 3 mps 757 mmHg 89%

    Tomorrow, 15 November, Thursday

    Time Temperature Precipitation Wind Pressure Humidity
    00:00 +7°C° 0.1 mm 3 mps 758 mmHg 89%
    01:00 +7°C° 0.1 mm 3 mps 758 mmHg 89%
    02:00 +7°C° 0.1 mm 3 mps 758 mmHg 90%
    03:00 +7°C° 0 mm 3 mps 758 mmHg 90%
    04:00 +7°C° 0 mm 3 mps 759 mmHg 91%
    05:00 +7°C° 0 mm 2 mps 759 mmHg 92%
    06:00 +6°C° 0 mm 2 mps 759 mmHg 92%
    07:00 +6°C° 0 mm 2 mps 759 mmHg 92%
    08:00 +6°C° 0 mm 2 mps 760 mmHg 92%
    09:00 +7°C° 0 mm 2 mps 760 mmHg 88%
    10:00 +7°C° 0 mm 3 mps 760 mmHg 84%
    11:00 +8°C° 0 mm 3 mps 761 mmHg 80%
    12:00 +8°C° 0 mm 3 mps 761 mmHg 77%
    13:00 +9°C° 0 mm 3 mps 761 mmHg 73%
    14:00 +9°C° 0 mm 3 mps 761 mmHg 70%
    15:00 +8°C° 0 mm 2 mps 761 mmHg 74%
    16:00 +7°C° 0 mm 2 mps 762 mmHg 78%
    17:00 +7°C° 0 mm 2 mps 762 mmHg 81%
    18:00 +6°C° 0 mm 2 mps 762 mmHg 83%
    19:00 +6°C° 0 mm 2 mps 763 mmHg 86%
    20:00 +5°C° 0 mm 2 mps 763 mmHg 88%
    21:00 +5°C° 0 mm 2 mps 763 mmHg 87%
    22:00 +4°C° 0 mm 2 mps 764 mmHg 87%
    23:00 +4°C° 0 mm 2 mps 764 mmHg 87%

    Day after tomorrow, 16 November, Friday

    Time Temperature Precipitation Wind Pressure Humidity
    00:00 +3°C° 0 mm 2 mps 764 mmHg 88%
    01:00 +3°C° 0 mm 2 mps 764 mmHg 88%
    02:00 +3°C° 0 mm 1 mps 765 mmHg 88%
    03:00 +2°C° 0 mm 2 mps 765 mmHg 89%
    04:00 +2°C° 0 mm 2 mps 765 mmHg 90%
    05:00 +1°C° 0 mm 2 mps 765 mmHg 90%
    06:00 +1°C° 0 mm 2 mps 765 mmHg 91%
    07:00 +1°C° 0 mm 2 mps 766 mmHg 92%
    08:00 -1°C° 0 mm 2 mps 766 mmHg 92%
    09:00 +1°C° 0 mm 2 mps 766 mmHg 88%
    10:00 +2°C° 0 mm 2 mps 767 mmHg 84%
    11:00 +3°C° 0 mm 2 mps 767 mmHg 80%
    12:00 +4°C° 0 mm 2 mps 767 mmHg 79%
    13:00 +4°C° 0 mm 2 mps 767 mmHg 77%
    14:00 +5°C° 0 mm 2 mps 767 mmHg 75%
    15:00 +5°C° 0 mm 2 mps 767 mmHg 77%
    16:00 +4°C° 0 mm 2 mps 767 mmHg 80%
    17:00 +4°C° 0 mm 2 mps 767 mmHg 83%
    18:00 +4°C° 0 mm 2 mps 767 mmHg 84%
    19:00 +4°C° 0 mm 2 mps 767 mmHg 84%
    20:00 +3°C° 0 mm 2 mps 768 mmHg 85%
    21:00 +3°C° 0 mm 2 mps 768 mmHg 86%
    22:00 +3°C° 0 mm 2 mps 768 mmHg 88%
    23:00 +2°C° 0 mm 2 mps 768 mmHg 90%

    17 November, Saturday

    Time Temperature Precipitation Wind Pressure Humidity
    00:00 +2°C° 0 mm 2 mps 768 mmHg 91%
    01:00 +2°C° 0 mm 2 mps 768 mmHg 92%
    02:00 +1°C° 0 mm 2 mps 768 mmHg 93%
    03:00 +1°C° 0 mm 2 mps 768 mmHg 93%
    04:00 +1°C° 0 mm 2 mps 768 mmHg 93%
    05:00 -1°C° 0 mm 2 mps 768 mmHg 93%
    06:00 -1°C° 0 mm 2 mps 768 mmHg 93%
    07:00 -1°C° 0 mm 2 mps 768 mmHg 92%
    08:00 -1°C° 0 mm 2 mps 768 mmHg 91%
    09:00 +1°C° 0 mm 2 mps 768 mmHg 85%
    10:00 +2°C° 0 mm 2 mps 768 mmHg 79%
    11:00 +3°C° 0 mm 2 mps 768 mmHg 73%
    12:00 +4°C° 0 mm 1 mps 768 mmHg 70%
    13:00 +5°C° 0 mm 1 mps 767 mmHg 67%
    14:00 +6°C° 0 mm 1 mps 767 mmHg 64%
    15:00 +5°C° 0 mm 1 mps 767 mmHg 69%
    16:00 +4°C° 0 mm 1 mps 767 mmHg 73%
    17:00 +4°C° 0 mm 1 mps 766 mmHg 78%
    18:00 +3°C° 0 mm 1 mps 766 mmHg 80%
    19:00 +3°C° 0 mm 1 mps 766 mmHg 82%
    20:00 +3°C° 0 mm 1 mps 766 mmHg 85%
    21:00 +2°C° 0 mm 1 mps 765 mmHg 85%
    22:00 +2°C° 0 mm 1 mps 765 mmHg 86%
    23:00 +2°C° 0 mm 1 mps 765 mmHg 87%

    18 November, Sunday

    Time Temperature Precipitation Wind Pressure Humidity
    00:00 +1°C° 0 mm 2 mps 764 mmHg 87%
    01:00 +1°C° 0 mm 2 mps 764 mmHg 88%
    02:00 +1°C° 0 mm 2 mps 763 mmHg 89%
    03:00 0°C° 0 mm 3 mps 762 mmHg 88%
    04:00 0°C° 0 mm 3 mps 762 mmHg 86%
    05:00 0°C° 0 mm 4 mps 761 mmHg 85%
    06:00 0°C° 0 mm 4 mps 760 mmHg 84%
    07:00 0°C° 0 mm 4 mps 759 mmHg 84%
    08:00 0°C° 0 mm 5 mps 759 mmHg 84%
    09:00 +1°C° 0.1 mm 5 mps 758 mmHg 84%
    10:00 +1°C° 0.1 mm 5 mps 758 mmHg 84%
    11:00 +2°C° 0.1 mm 5 mps 757 mmHg 84%
    12:00 +2°C° 0.1 mm 5 mps 757 mmHg 84%
    13:00 +3°C° 0.1 mm 4 mps 756 mmHg 85%
    14:00 +3°C° 0.1 mm 4 mps 755 mmHg 85%
    15:00 +3°C° 0.1 mm 4 mps 755 mmHg 85%
    16:00 +3°C° 0.1 mm 4 mps 755 mmHg 84%
    17:00 +3°C° 0.1 mm 4 mps 754 mmHg 83%
    18:00 +3°C° 0.1 mm 4 mps 754 mmHg 83%
    19:00 +3°C° 0.1 mm 4 mps 754 mmHg 84%
    20:00 +3°C° 0.1 mm 4 mps 754 mmHg 84%
    21:00 +3°C° 0.1 mm 4 mps 753 mmHg 84%
    22:00 +3°C° 0.1 mm 4 mps 753 mmHg 85%
    23:00 +1°C° 0.1 mm 4 mps 753 mmHg 86%

    19 November, Monday

    Time Temperature Precipitation Wind Pressure Humidity
    00:00 +1°C° 0.1 mm 4 mps 753 mmHg 87%
    01:00 +1°C° 0.1 mm 4 mps 753 mmHg 88%
    02:00 +1°C° 0.1 mm 4 mps 752 mmHg 89%
    03:00 +1°C° 0.3 mm 4 mps 752 mmHg 88%
    04:00 +1°C° 0.3 mm 4 mps 752 mmHg 88%
    05:00 +1°C° 0.3 mm 4 mps 751 mmHg 87%
    06:00 +1°C° 0.2 mm 4 mps 751 mmHg 87%
    07:00 +1°C° 0.2 mm 4 mps 751 mmHg 86%
    08:00 +1°C° 0.2 mm 4 mps 751 mmHg 86%
    09:00 +3°C° 0.1 mm 4 mps 751 mmHg 83%
    10:00 +3°C° 0.1 mm 4 mps 751 mmHg 80%
    11:00 +3°C° 0.1 mm 4 mps 751 mmHg 77%
    12:00 +3°C° 0.1 mm 4 mps 751 mmHg 77%
    13:00 +3°C° 0.1 mm 4 mps 751 mmHg 76%
    14:00 +3°C° 0.1 mm 4 mps 751 mmHg 76%
    15:00 +3°C° 0.1 mm 4 mps 752 mmHg 78%
    16:00 +3°C° 0.1 mm 4 mps 752 mmHg 81%
    17:00 +1°C° 0.1 mm 4 mps 752 mmHg 83%
    18:00 +1°C° 0.1 mm 4 mps 752 mmHg 83%
    19:00 +1°C° 0.1 mm 4 mps 752 mmHg 84%
    20:00 +1°C° 0.1 mm 5 mps 753 mmHg 84%
    21:00 +1°C° 0.1 mm 4 mps 753 mmHg 84%
    22:00 +1°C° 0.1 mm 4 mps 753 mmHg 83%
    23:00 0°C° 0.1 mm 4 mps 754 mmHg 83%
    Show more